Hourly Data Report for August 12, 2021

FLIN FLON
MANITOBA
Current Station Operator: ECCC - MSC

54°41'00.000" N
101°41'00.000" W
303.90 m
5050919
71954
WFO

Download Data

Hourly Data (August 2021)
Hourly Data Report for August 12, 2021
TIME
LST
Temp Definition
°C
Dew Point Definition
°C
Rel Hum Definition
%
Precip. Amount Definition
mm

Wind Dir Definition
10's deg

Wind Spd Definition
km/h
Visibility Definition
km
Stn Press Definition
kPa
Hmdx Definition


Wind Chill Definition


Weather Definition


00:00 10.1 3.6 64 0.0 34 36   96.76     LegendNANA
01:00 9.9 3.6 65 0.0 34 26   96.82     LegendNANA
02:00 9.8 4.0 67 0.0 34 30   96.88     LegendNANA
03:00 9.7 3.8 67 0.0 34 32   96.94     LegendNANA
04:00 9.6 4.5 71 0.0 35 28   96.99     LegendNANA
05:00 10.0 4.9 70 0.0 33 28   97.07     LegendNANA
06:00 10.3 4.8 69 0.0 34 25   97.16     LegendNANA
07:00 10.4 4.0 64 0.0 34 27   97.25     LegendNANA
08:00 10.8 3.3 60 0.0 34 29   97.35     LegendNANA
09:00 11.1 3.8 61 0.0 33 28   97.41     LegendNANA
10:00 12.2 2.7 52 0.0 34 27   97.46     LegendNANA
11:00 13.5 3.6 51 0.0 34 23   97.52     LegendNANA
12:00 15.0 3.0 44 0.0 34 28   97.56     LegendNANA
13:00 14.7 4.2 49 0.0 32 23   97.61     LegendNANA
14:00 15.1 2.4 42 0.0 33 30   97.63     LegendNANA
15:00 15.8 3.3 43 0.0 32 24   97.66     LegendNANA
16:00 16.2 2.9 41 0.0 33 24   97.69     LegendNANA
17:00 17.0 2.6 38 0.0 33 27   97.72     LegendNANA
18:00 15.9 2.3 40 0.0 34 28   97.75     LegendNANA
19:00 15.7 3.4 44 0.0 33 19   97.78     LegendNANA
20:00 15.1 3.8 47 0.0 33 15   97.79     LegendNANA
21:00 14.2 4.3 51 0.0 31 11   97.83     LegendNANA
22:00 13.0 5.2 59 0.0 30 7   97.86     LegendNANA
23:00 12.0 5.3 64 0.0 28 6   97.87     LegendNANA

Notes on Data Quality.

Legend

  • E = Estimated
  • M = Missing
  • NA = Not Available*
  • [empty] = Indicates an unobserved value
Date modified: